Terminal Aerodrome Forecast
Issued by NWS Sioux Falls, SD

Home | Current Version | Previous Version | Graphics & Text | Print | Product List | Glossary On
Versions: 1 2 3 4 5 6 7 8 9 10 11 12 13 14 15
000
FTUS43 KFSD 301100
TAFFSD
TAF
KFSD 301123Z 3012/3112 VRB03KT P6SM SKC
     FM301700 36006KT P6SM SCT060
     FM310100 VRB03KT P6SM SKC=

USA.gov is the U.S. government's official web portal to all federal, state and local government web resources and services.